owner,sensor,date,latitude,longitude,vertical_datum,wind_speed,wind_to_direction,wind_speed_of_gust,qcFlag 
TCOON,ioos:station:TCOON:031:1,2007-12-01T00:00:00Z,28.4073,-96.7122,0.0,3.6,71.0,7.4,'11111222,11111222,11111222' 
TCOON,ioos:station:TCOON:031:1,2007-12-01T01:00:00Z,28.4073,-96.7122,0.0,5.2,69.0,7.2,'11111222,11111222,11111222' 
TCOON,ioos:station:TCOON:031:1,2007-12-01T03:00:00Z,28.4073,-96.7122,0.0,3.4,65.0,4.7,'11111222,11111222,11111222' 
TCOON,ioos:station:TCOON:031:1,2007-12-01T04:00:00Z,28.4073,-96.7122,0.0,2.6,69.0,3.9,'11111222,11111222,11111222' 
TCOON,ioos:station:TCOON:031:1,2007-12-01T05:00:00Z,28.4073,-96.7122,0.0,2.6,65.0,3.2,'11111222,11111222,11111222' 
TCOON,ioos:station:TCOON:031:1,2007-12-01T06:00:00Z,28.4073,-96.7122,0.0,2.7,62.0,3.5,'11111222,11111222,11111222' 
TCOON,ioos:station:TCOON:031:1,2007-12-01T07:00:00Z,28.4073,-96.7122,0.0,2.6,84.0,3.3,'11111222,11111222,11111222' 
TCOON,ioos:station:TCOON:031:1,2007-12-01T08:00:00Z,28.4073,-96.7122,0.0,3.9,112.0,5.5,'11111222,11111222,11111222' 
TCOON,ioos:station:TCOON:031:1,2007-12-01T09:00:00Z,28.4073,-96.7122,0.0,4.8,106.0,6.6,'11111222,11111222,11111222' 
TCOON,ioos:station:TCOON:031:1,2007-12-01T10:00:00Z,28.4073,-96.7122,0.0,4.7,115.0,6.8,'11111222,11111222,11111222' 
TCOON,ioos:station:TCOON:031:1,2007-12-01T11:00:00Z,28.4073,-96.7122,0.0,4.3,107.0,5.9,'11111222,11111222,11111222' 
TCOON,ioos:station:TCOON:031:1,2007-12-01T12:00:00Z,28.4073,-96.7122,0.0,4.4,106.0,5.7,'11111222,11111222,11111222' 
TCOON,ioos:station:TCOON:031:1,2007-12-01T13:00:00Z,28.4073,-96.7122,0.0,4.6,110.0,7.0,'11111222,11111222,11111222' 
TCOON,ioos:station:TCOON:031:1,2007-12-01T14:00:00Z,28.4073,-96.7122,0.0,4.8,119.0,6.6,'11111222,11111222,11111222' 
TCOON,ioos:station:TCOON:031:1,2007-12-01T15:00:00Z,28.4073,-96.7122,0.0,7.4,122.0,10.2,'11111222,11111222,11111222' 
TCOON,ioos:station:TCOON:031:1,2007-12-01T16:00:00Z,28.4073,-96.7122,0.0,9.2,127.0,12.0,'11111222,11111222,11111222' 
TCOON,ioos:station:TCOON:031:1,2007-12-01T17:00:00Z,28.4073,-96.7122,0.0,8.2,129.0,12.7,'11111222,11111222,11111222' 
TCOON,ioos:station:TCOON:031:1,2007-12-01T18:00:00Z,28.4073,-96.7122,0.0,9.2,144.0,13.4,'11111222,11111222,11111222' 
TCOON,ioos:station:TCOON:031:1,2007-12-01T19:00:00Z,28.4073,-96.7122,0.0,10.3,145.0,13.7,'11111222,11111222,11111222' 
TCOON,ioos:station:TCOON:031:1,2007-12-01T20:00:00Z,28.4073,-96.7122,0.0,9.8,144.0,12.4,'11111222,11111222,11111222' 
TCOON,ioos:station:TCOON:031:1,2007-12-01T21:00:00Z,28.4073,-96.7122,0.0,8.6,145.0,10.6,'11111222,11111222,11111222' 
TCOON,ioos:station:TCOON:031:1,2007-12-01T22:00:00Z,28.4073,-96.7122,0.0,5.7,154.0,7.5,'11111222,11111222,11111222' 
TCOON,ioos:station:TCOON:031:1,2007-12-01T23:00:00Z,28.4073,-96.7122,0.0,5.4,144.0,6.7,'11111222,11111222,11111222' 
TCOON,ioos:station:TCOON:031:1,2007-12-02T00:00:00Z,28.4073,-96.7122,0.0,4.8,137.0,6.4,'11111222,11111222,11111222' 
TCOON,ioos:station:TCOON:031:1,2007-12-02T01:00:00Z,28.4073,-96.7122,0.0,5.9,132.0,7.1,'11111222,11111222,11111222' 
TCOON,ioos:station:TCOON:031:1,2007-12-02T02:00:00Z,28.4073,-96.7122,0.0,5.1,141.0,6.6,'11111222,11111222,11111222' 
TCOON,ioos:station:TCOON:031:1,2007-12-02T03:00:00Z,28.4073,-96.7122,0.0,5.0,137.0,6.5,'11111222,11111222,11111222' 
TCOON,ioos:station:TCOON:031:1,2007-12-02T04:00:00Z,28.4073,-96.7122,0.0,5.7,136.0,7.4,'11111222,11111222,11111222' 
TCOON,ioos:station:TCOON:031:1,2007-12-02T05:00:00Z,28.4073,-96.7122,0.0,5.2,133.0,6.5,'11111222,11111222,11111222' 
TCOON,ioos:station:TCOON:031:1,2007-12-02T06:00:00Z,28.4073,-96.7122,0.0,6.1,142.0,8.0,'11111222,11111222,11111222' 
TCOON,ioos:station:TCOON:031:1,2007-12-02T07:00:00Z,28.4073,-96.7122,0.0,6.0,147.0,7.3,'11111222,11111222,11111222' 
TCOON,ioos:station:TCOON:031:1,2007-12-02T08:00:00Z,28.4073,-96.7122,0.0,5.9,151.0,7.2,'11111222,11111222,11111222' 
TCOON,ioos:station:TCOON:031:1,2007-12-02T09:00:00Z,28.4073,-96.7122,0.0,5.4,153.0,6.3,'11111222,11111222,11111222' 
TCOON,ioos:station:TCOON:031:1,2007-12-02T10:00:00Z,28.4073,-96.7122,0.0,5.1,156.0,5.9,'11111222,11111222,11111222' 
TCOON,ioos:station:TCOON:031:1,2007-12-02T11:00:00Z,28.4073,-96.7122,0.0,5.6,153.0,7.3,'11111222,11111222,11111222' 
TCOON,ioos:station:TCOON:031:1,2007-12-02T12:00:00Z,28.4073,-96.7122,0.0,6.3,149.0,7.9,'11111222,11111222,11111222' 
TCOON,ioos:station:TCOON:031:1,2007-12-02T13:00:00Z,28.4073,-96.7122,0.0,6.2,148.0,7.6,'11111222,11111222,11111222' 
TCOON,ioos:station:TCOON:031:1,2007-12-02T14:00:00Z,28.4073,-96.7122,0.0,5.5,147.0,7.1,'11111222,11111222,11111222' 
TCOON,ioos:station:TCOON:031:1,2007-12-02T15:00:00Z,28.4073,-96.7122,0.0,5.5,161.0,6.5,'11111222,11111222,11111222' 
TCOON,ioos:station:TCOON:031:1,2007-12-02T16:00:00Z,28.4073,-96.7122,0.0,2.8,180.0,3.6,'11111222,11111222,11111222' 
TCOON,ioos:station:TCOON:031:1,2007-12-02T17:00:00Z,28.4073,-96.7122,0.0,1.9,200.0,2.6,'11111222,11111222,11111222' 
TCOON,ioos:station:TCOON:031:1,2007-12-02T18:00:00Z,28.4073,-96.7122,0.0,4.6,158.0,5.5,'11111222,11111222,11111222' 
TCOON,ioos:station:TCOON:031:1,2007-12-02T19:00:00Z,28.4073,-96.7122,0.0,2.9,163.0,3.4,'11111222,11111222,11111222' 
TCOON,ioos:station:TCOON:031:1,2007-12-02T20:00:00Z,28.4073,-96.7122,0.0,4.7,177.0,5.9,'11111222,11111222,11111222' 
TCOON,ioos:station:TCOON:031:1,2007-12-02T21:00:00Z,28.4073,-96.7122,0.0,2.6,161.0,3.1,'11111222,11111222,11111222' 
TCOON,ioos:station:TCOON:031:1,2007-12-02T22:00:00Z,28.4073,-96.7122,0.0,1.2,157.0,1.5,'11111222,11111222,11111222' 
TCOON,ioos:station:TCOON:031:1,2007-12-02T23:00:00Z,28.4073,-96.7122,0.0,1.4,163.0,1.5,'11111222,11111222,11111222' 
TCOON,ioos:station:TCOON:031:1,2007-12-03T00:00:00Z,28.4073,-96.7122,0.0,0.0,163.0,99.0,'11111222,11111222,11144222' 
TCOON,ioos:station:TCOON:031:1,2007-12-03T01:00:00Z,28.4073,-96.7122,0.0,1.3,156.0,1.4,'11111222,11111222,11111222' 
TCOON,ioos:station:TCOON:031:1,2007-12-03T02:00:00Z,28.4073,-96.7122,0.0,0.8,191.0,0.9,'11111222,11111222,11111222' 
TCOON,ioos:station:TCOON:031:1,2007-12-03T03:00:00Z,28.4073,-96.7122,0.0,0.0,353.0,99.0,'11111222,11111222,11144222' 
TCOON,ioos:station:TCOON:031:1,2007-12-03T04:00:00Z,28.4073,-96.7122,0.0,1.3,350.0,2.0,'11111222,11111222,11111222' 
TCOON,ioos:station:TCOON:031:1,2007-12-03T05:00:00Z,28.4073,-96.7122,0.0,7.5,350.0,12.0,'11111222,11111222,11111222' 
TCOON,ioos:station:TCOON:031:1,2007-12-03T06:00:00Z,28.4073,-96.7122,0.0,4.3,352.0,7.4,'11111222,11111222,11111222' 
TCOON,ioos:station:TCOON:031:1,2007-12-03T07:00:00Z,28.4073,-96.7122,0.0,4.9,351.0,8.9,'11111222,11111222,11111222' 
TCOON,ioos:station:TCOON:031:1,2007-12-03T08:00:00Z,28.4073,-96.7122,0.0,5.6,351.0,9.2,'11111222,11111222,11111222' 
TCOON,ioos:station:TCOON:031:1,2007-12-03T09:00:00Z,28.4073,-96.7122,0.0,6.6,356.0,10.4,'11111222,11111222,11111222' 
TCOON,ioos:station:TCOON:031:1,2007-12-03T10:00:00Z,28.4073,-96.7122,0.0,5.7,358.0,8.3,'11111222,11111222,11111222' 
TCOON,ioos:station:TCOON:031:1,2007-12-03T11:00:00Z,28.4073,-96.7122,0.0,5.7,352.0,10.0,'11111222,11111222,11111222' 
TCOON,ioos:station:TCOON:031:1,2007-12-03T12:00:00Z,28.4073,-96.7122,0.0,5.6,349.0,8.5,'11111222,11111222,11111222' 
TCOON,ioos:station:TCOON:031:1,2007-12-03T13:00:00Z,28.4073,-96.7122,0.0,6.3,344.0,9.8,'11111222,11111222,11111222' 
TCOON,ioos:station:TCOON:031:1,2007-12-03T14:00:00Z,28.4073,-96.7122,0.0,5.0,350.0,10.2,'11111222,11111222,11111222' 
TCOON,ioos:station:TCOON:031:1,2007-12-03T15:00:00Z,28.4073,-96.7122,0.0,5.3,352.0,11.2,'11111222,11111222,11111222' 
TCOON,ioos:station:TCOON:031:1,2007-12-03T16:00:00Z,28.4073,-96.7122,0.0,5.8,356.0,11.0,'11111222,11111222,11111222' 
TCOON,ioos:station:TCOON:031:1,2007-12-03T17:00:00Z,28.4073,-96.7122,0.0,4.9,359.0,9.8,'11111222,11111222,11111222' 
TCOON,ioos:station:TCOON:031:1,2007-12-03T18:00:00Z,28.4073,-96.7122,0.0,6.0,348.0,9.1,'11111222,11111222,11111222' 
TCOON,ioos:station:TCOON:031:1,2007-12-03T19:00:00Z,28.4073,-96.7122,0.0,5.2,346.0,9.6,'11111222,11111222,11111222' 
TCOON,ioos:station:TCOON:031:1,2007-12-03T20:00:00Z,28.4073,-96.7122,0.0,6.6,341.0,9.2,'11111222,11111222,11111222' 
TCOON,ioos:station:TCOON:031:1,2007-12-03T21:00:00Z,28.4073,-96.7122,0.0,4.4,347.0,8.5,'11111222,11111222,11111222' 
TCOON,ioos:station:TCOON:031:1,2007-12-03T22:00:00Z,28.4073,-96.7122,0.0,4.7,337.0,7.0,'11111222,11111222,11111222' 
TCOON,ioos:station:TCOON:031:1,2007-12-03T23:00:00Z,28.4073,-96.7122,0.0,3.8,337.0,5.6,'11111222,11111222,11111222' 
TCOON,ioos:station:TCOON:031:1,2007-12-04T00:00:00Z,28.4073,-96.7122,0.0,2.4,331.0,3.5,'11111222,11111222,11111222' 
TCOON,ioos:station:TCOON:031:1,2007-12-04T01:00:00Z,28.4073,-96.7122,0.0,1.0,347.0,2.3,'11111222,11111222,11111222' 
TCOON,ioos:station:TCOON:031:1,2007-12-04T02:00:00Z,28.4073,-96.7122,0.0,2.4,355.0,3.7,'11111222,11111222,11111222' 
TCOON,ioos:station:TCOON:031:1,2007-12-04T03:00:00Z,28.4073,-96.7122,0.0,1.8,353.0,3.1,'11111222,11111222,11111222' 
TCOON,ioos:station:TCOON:031:1,2007-12-04T04:00:00Z,28.4073,-96.7122,0.0,1.5,360.0,2.4,'11111222,11144222,11111222' 
TCOON,ioos:station:TCOON:031:1,2007-12-04T05:00:00Z,28.4073,-96.7122,0.0,1.9,345.0,2.5,'11111222,11111222,11111222' 
TCOON,ioos:station:TCOON:031:1,2007-12-04T06:00:00Z,28.4073,-96.7122,0.0,2.4,343.0,3.6,'11111222,11111222,11111222' 
TCOON,ioos:station:TCOON:031:1,2007-12-04T07:00:00Z,28.4073,-96.7122,0.0,2.4,349.0,2.9,'11111222,11111222,11111222' 
TCOON,ioos:station:TCOON:031:1,2007-12-04T08:00:00Z,28.4073,-96.7122,0.0,2.3,355.0,2.8,'11111222,11111222,11111222' 
TCOON,ioos:station:TCOON:031:1,2007-12-04T09:00:00Z,28.4073,-96.7122,0.0,2.0,5.0,2.4,'11111222,11111222,11111222' 
TCOON,ioos:station:TCOON:031:1,2007-12-04T10:00:00Z,28.4073,-96.7122,0.0,2.3,334.0,2.5,'11111222,11111222,11111222' 
TCOON,ioos:station:TCOON:031:1,2007-12-04T11:00:00Z,28.4073,-96.7122,0.0,2.1,5.0,2.3,'11111222,11111222,11111222' 
TCOON,ioos:station:TCOON:031:1,2007-12-04T12:00:00Z,28.4073,-96.7122,0.0,0.0,5.0,99.0,'11111222,11111222,11144222' 
TCOON,ioos:station:TCOON:031:1,2007-12-04T13:00:00Z,28.4073,-96.7122,0.0,1.8,351.0,2.2,'11111222,11111222,11111222' 
TCOON,ioos:station:TCOON:031:1,2007-12-04T14:00:00Z,28.4073,-96.7122,0.0,2.6,344.0,3.2,'11111222,11111222,11111222' 
TCOON,ioos:station:TCOON:031:1,2007-12-04T15:00:00Z,28.4073,-96.7122,0.0,2.2,331.0,3.0,'11111222,11111222,11111222' 
TCOON,ioos:station:TCOON:031:1,2007-12-04T16:00:00Z,28.4073,-96.7122,0.0,0.0,312.0,99.0,'11111222,11111222,11144222' 
TCOON,ioos:station:TCOON:031:1,2007-12-04T17:00:00Z,28.4073,-96.7122,0.0,0.6,213.0,1.4,'11111222,11111222,11111222' 
TCOON,ioos:station:TCOON:031:1,2007-12-04T18:00:00Z,28.4073,-96.7122,0.0,0.0,189.0,99.0,'11111222,11111222,11144222' 
TCOON,ioos:station:TCOON:031:1,2007-12-04T19:00:00Z,28.4073,-96.7122,0.0,1.7,166.0,2.0,'11111222,11111222,11111222' 
TCOON,ioos:station:TCOON:031:1,2007-12-04T20:00:00Z,28.4073,-96.7122,0.0,3.2,181.0,3.6,'11111222,11111222,11111222' 
TCOON,ioos:station:TCOON:031:1,2007-12-04T21:00:00Z,28.4073,-96.7122,0.0,4.8,170.0,5.2,'11111222,11111222,11111222' 
TCOON,ioos:station:TCOON:031:1,2007-12-04T22:00:00Z,28.4073,-96.7122,0.0,4.2,159.0,4.9,'11111222,11111222,11111222' 
TCOON,ioos:station:TCOON:031:1,2007-12-04T23:00:00Z,28.4073,-96.7122,0.0,4.1,146.0,4.8,'11111222,11111222,11111222' 
TCOON,ioos:station:TCOON:031:1,2007-12-05T00:00:00Z,28.4073,-96.7122,0.0,1.5,108.0,2.1,'11111222,11111222,11111222' 
TCOON,ioos:station:TCOON:031:1,2007-12-05T01:00:00Z,28.4073,-96.7122,0.0,1.3,102.0,1.6,'11111222,11111222,11111222' 
TCOON,ioos:station:TCOON:031:1,2007-12-05T02:00:00Z,28.4073,-96.7122,0.0,1.0,105.0,1.4,'11111222,11111222,11111222' 
TCOON,ioos:station:TCOON:031:1,2007-12-05T03:00:00Z,28.4073,-96.7122,0.0,2.4,143.0,2.7,'11111222,11111222,11111222' 
TCOON,ioos:station:TCOON:031:1,2007-12-05T04:00:00Z,28.4073,-96.7122,0.0,2.8,146.0,3.3,'11111222,11111222,11111222' 
TCOON,ioos:station:TCOON:031:1,2007-12-05T05:00:00Z,28.4073,-96.7122,0.0,3.5,172.0,4.3,'11111222,11111222,11111222' 
TCOON,ioos:station:TCOON:031:1,2007-12-05T06:00:00Z,28.4073,-96.7122,0.0,3.0,189.0,3.4,'11111222,11111222,11111222' 
TCOON,ioos:station:TCOON:031:1,2007-12-05T07:00:00Z,28.4073,-96.7122,0.0,3.6,195.0,4.0,'11111222,11111222,11111222' 
TCOON,ioos:station:TCOON:031:1,2007-12-05T08:00:00Z,28.4073,-96.7122,0.0,2.7,259.0,3.1,'11111222,11111222,11111222' 
TCOON,ioos:station:TCOON:031:1,2007-12-05T09:00:00Z,28.4073,-96.7122,0.0,0.0,301.0,99.0,'11111222,11111222,11144222' 
TCOON,ioos:station:TCOON:031:1,2007-12-05T13:00:00Z,28.4073,-96.7122,0.0,1.9,265.0,2.1,'11111222,11111222,11111222' 
TCOON,ioos:station:TCOON:031:1,2007-12-05T14:00:00Z,28.4073,-96.7122,0.0,0.0,251.0,99.0,'11111222,11111222,11144222' 
TCOON,ioos:station:TCOON:031:1,2007-12-05T15:00:00Z,28.4073,-96.7122,0.0,0.0,231.0,99.0,'11111222,11111222,11144222' 
TCOON,ioos:station:TCOON:031:1,2007-12-05T16:00:00Z,28.4073,-96.7122,0.0,0.0,210.0,99.0,'11111222,11111222,11144222' 
TCOON,ioos:station:TCOON:031:1,2007-12-05T17:00:00Z,28.4073,-96.7122,0.0,0.7,186.0,1.3,'11111222,11111222,11111222' 
TCOON,ioos:station:TCOON:031:1,2007-12-05T18:00:00Z,28.4073,-96.7122,0.0,2.5,160.0,3.1,'11111222,11111222,11111222' 
TCOON,ioos:station:TCOON:031:1,2007-12-05T19:00:00Z,28.4073,-96.7122,0.0,3.8,160.0,4.7,'11111222,11111222,11111222' 
TCOON,ioos:station:TCOON:031:1,2007-12-05T20:00:00Z,28.4073,-96.7122,0.0,4.7,159.0,5.2,'11111222,11111222,11111222' 
TCOON,ioos:station:TCOON:031:1,2007-12-05T21:00:00Z,28.4073,-96.7122,0.0,3.4,159.0,3.9,'11111222,11111222,11111222' 
TCOON,ioos:station:TCOON:031:1,2007-12-05T22:00:00Z,28.4073,-96.7122,0.0,3.7,151.0,4.2,'11111222,11111222,11111222' 
TCOON,ioos:station:TCOON:031:1,2007-12-05T23:00:00Z,28.4073,-96.7122,0.0,1.3,108.0,1.8,'11111222,11111222,11111222' 
TCOON,ioos:station:TCOON:031:1,2007-12-06T00:00:00Z,28.4073,-96.7122,0.0,1.5,114.0,2.3,'11111222,11111222,11111222' 
TCOON,ioos:station:TCOON:031:1,2007-12-06T01:00:00Z,28.4073,-96.7122,0.0,1.6,90.0,2.0,'11111222,11111222,11111222' 
TCOON,ioos:station:TCOON:031:1,2007-12-06T02:00:00Z,28.4073,-96.7122,0.0,2.3,57.0,2.9,'11111222,11111222,11111222' 
TCOON,ioos:station:TCOON:031:1,2007-12-06T03:00:00Z,28.4073,-96.7122,0.0,2.4,89.0,2.9,'11111222,11111222,11111222' 
TCOON,ioos:station:TCOON:031:1,2007-12-06T04:00:00Z,28.4073,-96.7122,0.0,2.2,96.0,4.3,'11111222,11111222,11111222' 
TCOON,ioos:station:TCOON:031:1,2007-12-06T05:00:00Z,28.4073,-96.7122,0.0,2.0,62.0,2.5,'11111222,11111222,11111222' 
TCOON,ioos:station:TCOON:031:1,2007-12-06T06:00:00Z,28.4073,-96.7122,0.0,2.0,53.0,2.5,'11111222,11111222,11111222' 
TCOON,ioos:station:TCOON:031:1,2007-12-06T07:00:00Z,28.4073,-96.7122,0.0,2.2,60.0,2.8,'11111222,11111222,11111222' 
TCOON,ioos:station:TCOON:031:1,2007-12-06T08:00:00Z,28.4073,-96.7122,0.0,2.2,30.0,3.0,'11111222,11111222,11111222' 
TCOON,ioos:station:TCOON:031:1,2007-12-06T09:00:00Z,28.4073,-96.7122,0.0,2.6,52.0,3.1,'11111222,11111222,11111222' 
TCOON,ioos:station:TCOON:031:1,2007-12-06T10:00:00Z,28.4073,-96.7122,0.0,2.3,58.0,2.9,'11111222,11111222,11111222' 
TCOON,ioos:station:TCOON:031:1,2007-12-06T11:00:00Z,28.4073,-96.7122,0.0,1.9,39.0,2.7,'11111222,11111222,11111222' 
TCOON,ioos:station:TCOON:031:1,2007-12-06T12:00:00Z,28.4073,-96.7122,0.0,2.2,42.0,3.3,'11111222,11111222,11111222' 
TCOON,ioos:station:TCOON:031:1,2007-12-06T13:00:00Z,28.4073,-96.7122,0.0,2.1,50.0,3.4,'11111222,11111222,11111222' 
TCOON,ioos:station:TCOON:031:1,2007-12-06T14:00:00Z,28.4073,-96.7122,0.0,1.5,30.0,2.5,'11111222,11111222,11111222' 
TCOON,ioos:station:TCOON:031:1,2007-12-06T15:00:00Z,28.4073,-96.7122,0.0,3.0,7.0,4.0,'11111222,11111222,11111222' 
TCOON,ioos:station:TCOON:031:1,2007-12-06T16:00:00Z,28.4073,-96.7122,0.0,2.1,64.0,4.1,'11111222,11111222,11111222' 
TCOON,ioos:station:TCOON:031:1,2007-12-06T17:00:00Z,28.4073,-96.7122,0.0,5.8,131.0,7.7,'11111222,11111222,11111222' 
TCOON,ioos:station:TCOON:031:1,2007-12-06T18:00:00Z,28.4073,-96.7122,0.0,7.0,139.0,9.0,'11111222,11111222,11111222' 
TCOON,ioos:station:TCOON:031:1,2007-12-06T19:00:00Z,28.4073,-96.7122,0.0,6.9,144.0,9.5,'11111222,11111222,11111222' 
TCOON,ioos:station:TCOON:031:1,2007-12-06T20:00:00Z,28.4073,-96.7122,0.0,6.1,130.0,8.3,'11111222,11111222,11111222' 
TCOON,ioos:station:TCOON:031:1,2007-12-06T21:00:00Z,28.4073,-96.7122,0.0,6.3,127.0,7.8,'11111222,11111222,11111222' 
TCOON,ioos:station:TCOON:031:1,2007-12-06T22:00:00Z,28.4073,-96.7122,0.0,6.7,136.0,8.2,'11111222,11111222,11111222' 
TCOON,ioos:station:TCOON:031:1,2007-12-06T23:00:00Z,28.4073,-96.7122,0.0,4.4,117.0,6.1,'11111222,11111222,11111222' 
TCOON,ioos:station:TCOON:031:1,2007-12-07T00:00:00Z,28.4073,-96.7122,0.0,4.0,117.0,5.3,'11111222,11111222,11111222' 
TCOON,ioos:station:TCOON:031:1,2007-12-07T01:00:00Z,28.4073,-96.7122,0.0,3.7,121.0,5.0,'11111222,11111222,11111222' 
TCOON,ioos:station:TCOON:031:1,2007-12-07T02:00:00Z,28.4073,-96.7122,0.0,4.3,127.0,6.3,'11111222,11111222,11111222' 
TCOON,ioos:station:TCOON:031:1,2007-12-07T03:00:00Z,28.4073,-96.7122,0.0,4.4,132.0,6.1,'11111222,11111222,11111222' 
TCOON,ioos:station:TCOON:031:1,2007-12-07T04:00:00Z,28.4073,-96.7122,0.0,4.9,138.0,6.0,'11111222,11111222,11111222' 
TCOON,ioos:station:TCOON:031:1,2007-12-07T05:00:00Z,28.4073,-96.7122,0.0,6.4,143.0,8.0,'11111222,11111222,11111222' 
TCOON,ioos:station:TCOON:031:1,2007-12-07T06:00:00Z,28.4073,-96.7122,0.0,5.7,151.0,6.6,'11111222,11111222,11111222' 
TCOON,ioos:station:TCOON:031:1,2007-12-07T07:00:00Z,28.4073,-96.7122,0.0,3.6,154.0,4.5,'11111222,11111222,11111222' 
TCOON,ioos:station:TCOON:031:1,2007-12-07T08:00:00Z,28.4073,-96.7122,0.0,3.7,150.0,4.5,'11111222,11111222,11111222' 
TCOON,ioos:station:TCOON:031:1,2007-12-07T09:00:00Z,28.4073,-96.7122,0.0,4.0,152.0,4.7,'11111222,11111222,11111222' 
TCOON,ioos:station:TCOON:031:1,2007-12-07T10:00:00Z,28.4073,-96.7122,0.0,3.7,148.0,4.5,'11111222,11111222,11111222' 
TCOON,ioos:station:TCOON:031:1,2007-12-07T11:00:00Z,28.4073,-96.7122,0.0,1.9,140.0,2.4,'11111222,11111222,11111222' 
TCOON,ioos:station:TCOON:031:1,2007-12-07T12:00:00Z,28.4073,-96.7122,0.0,1.7,120.0,2.6,'11111222,11111222,11111222' 
TCOON,ioos:station:TCOON:031:1,2007-12-07T13:00:00Z,28.4073,-96.7122,0.0,3.0,129.0,3.7,'11111222,11111222,11111222' 
TCOON,ioos:station:TCOON:031:1,2007-12-07T14:00:00Z,28.4073,-96.7122,0.0,1.7,170.0,2.3,'11111222,11111222,11111222' 
TCOON,ioos:station:TCOON:031:1,2007-12-07T15:00:00Z,28.4073,-96.7122,0.0,3.5,152.0,4.0,'11111222,11111222,11111222' 
TCOON,ioos:station:TCOON:031:1,2007-12-07T16:00:00Z,28.4073,-96.7122,0.0,4.6,162.0,6.2,'11111222,11111222,11111222' 
TCOON,ioos:station:TCOON:031:1,2007-12-07T17:00:00Z,28.4073,-96.7122,0.0,4.5,161.0,5.2,'11111222,11111222,11111222' 
TCOON,ioos:station:TCOON:031:1,2007-12-07T18:00:00Z,28.4073,-96.7122,0.0,4.8,161.0,6.2,'11111222,11111222,11111222' 
TCOON,ioos:station:TCOON:031:1,2007-12-07T19:00:00Z,28.4073,-96.7122,0.0,4.8,165.0,6.3,'11111222,11111222,11111222' 
TCOON,ioos:station:TCOON:031:1,2007-12-07T20:00:00Z,28.4073,-96.7122,0.0,4.2,163.0,5.1,'11111222,11111222,11111222' 
TCOON,ioos:station:TCOON:031:1,2007-12-07T21:00:00Z,28.4073,-96.7122,0.0,6.3,157.0,7.9,'11111222,11111222,11111222' 
TCOON,ioos:station:TCOON:031:1,2007-12-07T22:00:00Z,28.4073,-96.7122,0.0,7.8,145.0,9.6,'11111222,11111222,11111222' 
TCOON,ioos:station:TCOON:031:1,2007-12-07T23:00:00Z,28.4073,-96.7122,0.0,6.5,131.0,8.2,'11111222,11111222,11111222' 
TCOON,ioos:station:TCOON:031:1,2007-12-08T00:00:00Z,28.4073,-96.7122,0.0,5.0,120.0,7.6,'11111222,11111222,11111222' 
TCOON,ioos:station:TCOON:031:1,2007-12-08T01:00:00Z,28.4073,-96.7122,0.0,5.3,125.0,7.8,'11111222,11111222,11111222' 
TCOON,ioos:station:TCOON:031:1,2007-12-08T02:00:00Z,28.4073,-96.7122,0.0,6.6,130.0,8.6,'11111222,11111222,11111222' 
TCOON,ioos:station:TCOON:031:1,2007-12-08T03:00:00Z,28.4073,-96.7122,0.0,6.4,132.0,8.5,'11111222,11111222,11111222' 
TCOON,ioos:station:TCOON:031:1,2007-12-08T04:00:00Z,28.4073,-96.7122,0.0,5.7,138.0,7.6,'11111222,11111222,11111222' 
TCOON,ioos:station:TCOON:031:1,2007-12-08T05:00:00Z,28.4073,-96.7122,0.0,6.9,139.0,9.5,'11111222,11111222,11111222' 
TCOON,ioos:station:TCOON:031:1,2007-12-08T06:00:00Z,28.4073,-96.7122,0.0,5.4,143.0,6.7,'11111222,11111222,11111222' 
TCOON,ioos:station:TCOON:031:1,2007-12-08T07:00:00Z,28.4073,-96.7122,0.0,4.3,144.0,5.4,'11111222,11111222,11111222' 
TCOON,ioos:station:TCOON:031:1,2007-12-08T08:00:00Z,28.4073,-96.7122,0.0,4.3,146.0,5.1,'11111222,11111222,11111222' 
TCOON,ioos:station:TCOON:031:1,2007-12-08T09:00:00Z,28.4073,-96.7122,0.0,5.0,152.0,5.8,'11111222,11111222,11111222' 
TCOON,ioos:station:TCOON:031:1,2007-12-08T10:00:00Z,28.4073,-96.7122,0.0,6.4,147.0,7.4,'11111222,11111222,11111222' 
TCOON,ioos:station:TCOON:031:1,2007-12-08T11:00:00Z,28.4073,-96.7122,0.0,4.8,139.0,6.3,'11111222,11111222,11111222' 
TCOON,ioos:station:TCOON:031:1,2007-12-08T12:00:00Z,28.4073,-96.7122,0.0,3.5,119.0,4.2,'11111222,11111222,11111222' 
TCOON,ioos:station:TCOON:031:1,2007-12-08T13:00:00Z,28.4073,-96.7122,0.0,2.2,109.0,3.6,'11111222,11111222,11111222' 
TCOON,ioos:station:TCOON:031:1,2007-12-08T14:00:00Z,28.4073,-96.7122,0.0,2.7,115.0,4.2,'11111222,11111222,11111222' 
TCOON,ioos:station:TCOON:031:1,2007-12-08T15:00:00Z,28.4073,-96.7122,0.0,4.8,122.0,8.0,'11111222,11111222,11111222' 
TCOON,ioos:station:TCOON:031:1,2007-12-08T16:00:00Z,28.4073,-96.7122,0.0,6.5,130.0,8.2,'11111222,11111222,11111222' 
TCOON,ioos:station:TCOON:031:1,2007-12-08T17:00:00Z,28.4073,-96.7122,0.0,7.1,132.0,9.1,'11111222,11111222,11111222' 
TCOON,ioos:station:TCOON:031:1,2007-12-08T18:00:00Z,28.4073,-96.7122,0.0,7.9,132.0,10.1,'11111222,11111222,11111222' 
TCOON,ioos:station:TCOON:031:1,2007-12-08T19:00:00Z,28.4073,-96.7122,0.0,8.0,137.0,10.4,'11111222,11111222,11111222' 
TCOON,ioos:station:TCOON:031:1,2007-12-08T20:00:00Z,28.4073,-96.7122,0.0,7.7,133.0,10.0,'11111222,11111222,11111222' 
TCOON,ioos:station:TCOON:031:1,2007-12-08T21:00:00Z,28.4073,-96.7122,0.0,7.6,118.0,10.0,'11111222,11111222,11111222' 
TCOON,ioos:station:TCOON:031:1,2007-12-08T22:00:00Z,28.4073,-96.7122,0.0,6.9,118.0,11.0,'11111222,11111222,11111222' 
TCOON,ioos:station:TCOON:031:1,2007-12-08T23:00:00Z,28.4073,-96.7122,0.0,6.1,111.0,8.9,'11111222,11111222,11111222' 
TCOON,ioos:station:TCOON:031:1,2007-12-09T00:00:00Z,28.4073,-96.7122,0.0,5.4,99.0,7.1,'11111222,11111222,11111222' 
TCOON,ioos:station:TCOON:031:1,2007-12-09T01:00:00Z,28.4073,-96.7122,0.0,4.7,104.0,6.5,'11111222,11111222,11111222' 
TCOON,ioos:station:TCOON:031:1,2007-12-09T02:00:00Z,28.4073,-96.7122,0.0,5.3,108.0,7.5,'11111222,11111222,11111222' 
TCOON,ioos:station:TCOON:031:1,2007-12-09T03:00:00Z,28.4073,-96.7122,0.0,5.4,111.0,8.1,'11111222,11111222,11111222' 
TCOON,ioos:station:TCOON:031:1,2007-12-09T04:00:00Z,28.4073,-96.7122,0.0,4.3,117.0,6.3,'11111222,11111222,11111222' 
TCOON,ioos:station:TCOON:031:1,2007-12-09T05:00:00Z,28.4073,-96.7122,0.0,2.8,122.0,3.7,'11111222,11111222,11111222' 
TCOON,ioos:station:TCOON:031:1,2007-12-09T06:00:00Z,28.4073,-96.7122,0.0,3.8,124.0,5.0,'11111222,11111222,11111222' 
TCOON,ioos:station:TCOON:031:1,2007-12-09T07:00:00Z,28.4073,-96.7122,0.0,4.0,122.0,6.1,'11111222,11111222,11111222' 
TCOON,ioos:station:TCOON:031:1,2007-12-09T08:00:00Z,28.4073,-96.7122,0.0,4.6,121.0,5.8,'11111222,11111222,11111222' 
TCOON,ioos:station:TCOON:031:1,2007-12-09T09:00:00Z,28.4073,-96.7122,0.0,4.7,117.0,6.4,'11111222,11111222,11111222' 
TCOON,ioos:station:TCOON:031:1,2007-12-09T10:00:00Z,28.4073,-96.7122,0.0,5.5,119.0,7.1,'11111222,11111222,11111222' 
TCOON,ioos:station:TCOON:031:1,2007-12-09T11:00:00Z,28.4073,-96.7122,0.0,4.0,120.0,5.7,'11111222,11111222,11111222' 
TCOON,ioos:station:TCOON:031:1,2007-12-09T12:00:00Z,28.4073,-96.7122,0.0,3.8,103.0,5.1,'11111222,11111222,11111222' 
TCOON,ioos:station:TCOON:031:1,2007-12-09T13:00:00Z,28.4073,-96.7122,0.0,3.9,104.0,5.0,'11111222,11111222,11111222' 
TCOON,ioos:station:TCOON:031:1,2007-12-09T14:00:00Z,28.4073,-96.7122,0.0,4.5,109.0,6.0,'11111222,11111222,11111222' 
TCOON,ioos:station:TCOON:031:1,2007-12-09T15:00:00Z,28.4073,-96.7122,0.0,5.3,116.0,7.1,'11111222,11111222,11111222' 